TimeEDT,TemperatureF,Dew PointF,Humidity,Sea Level PressureIn,VisibilityMPH,Wind Direction,Wind SpeedMPH,Gust SpeedMPH,PrecipitationIn,Events,Conditions,WindDirDegrees,DateUTC
12:53 AM,48.0,39.0,71,30.21,10.0,North,9.2,-,N/A,,Clear,360,2013-04-21 04:53:00
1:53 AM,48.9,33.1,54,30.23,10.0,NNW,13.8,-,N/A,,Mostly Cloudy,340,2013-04-21 05:53:00
2:53 AM,46.9,28.9,50,30.27,10.0,NNW,13.8,23.0,N/A,,Partly Cloudy,330,2013-04-21 06:53:00
3:53 AM,45.0,27.0,49,30.30,10.0,NNW,17.3,-,N/A,,Clear,330,2013-04-21 07:53:00
4:53 AM,42.1,23.0,47,30.33,10.0,NNW,12.7,21.9,N/A,,Clear,330,2013-04-21 08:53:00
5:53 AM,41.0,24.1,51,30.37,10.0,NNW,16.1,21.9,N/A,,Clear,330,2013-04-21 09:53:00
6:53 AM,41.0,23.0,49,30.42,10.0,NNW,15.0,20.7,N/A,,Clear,340,2013-04-21 10:53:00
7:53 AM,43.0,25.0,49,30.45,10.0,NNW,17.3,21.9,N/A,,Clear,330,2013-04-21 11:53:00
8:53 AM,44.1,25.0,47,30.46,10.0,North,16.1,-,N/A,,Clear,350,2013-04-21 12:53:00
9:53 AM,46.0,25.0,44,30.48,10.0,North,18.4,21.9,N/A,,Clear,360,2013-04-21 13:53:00
10:53 AM,46.0,25.0,44,30.51,10.0,North,18.4,24.2,N/A,,Clear,360,2013-04-21 14:53:00
11:53 AM,46.0,25.0,44,30.52,10.0,North,18.4,-,N/A,,Clear,350,2013-04-21 15:53:00
12:53 PM,46.9,24.1,41,30.53,10.0,North,16.1,25.3,N/A,,Clear,350,2013-04-21 16:53:00
1:53 PM,46.0,26.1,46,30.55,10.0,North,11.5,25.3,N/A,,Partly Cloudy,360,2013-04-21 17:53:00
2:53 PM,46.9,26.1,44,30.55,10.0,NNE,11.5,21.9,N/A,,Clear,20,2013-04-21 18:53:00
3:53 PM,46.0,27.0,47,30.56,10.0,North,12.7,18.4,N/A,,Clear,360,2013-04-21 19:53:00
4:53 PM,46.0,25.0,44,30.57,10.0,ENE,15.0,-,N/A,,Clear,60,2013-04-21 20:53:00
5:53 PM,45.0,25.0,46,30.58,10.0,ENE,12.7,-,N/A,,Clear,60,2013-04-21 21:53:00
6:53 PM,42.1,26.1,53,30.59,10.0,East,8.1,-,N/A,,Clear,80,2013-04-21 22:53:00
7:53 PM,39.0,26.1,60,30.62,10.0,ENE,5.8,-,N/A,,Clear,70,2013-04-21 23:53:00
8:53 PM,39.0,26.1,60,30.64,10.0,ENE,6.9,-,N/A,,Clear,60,2013-04-22 00:53:00
9:53 PM,39.9,25.0,55,30.65,10.0,NE,6.9,-,N/A,,Clear,50,2013-04-22 01:53:00
10:53 PM,36.0,26.1,67,30.65,10.0,NE,6.9,-,N/A,,Clear,40,2013-04-22 02:53:00
11:53 PM,36.0,26.1,67,30.65,10.0,NNE,6.9,-,N/A,,Clear,30,2013-04-22 03:53:00